Regional Weather Roundup
Issued by NWS Newport/Morehead, NC

Current Version | Previous Version | Graphics & Text | Print | Product List | Glossary Off
Versions: 1 2 3 4 5 6 7 8 9 10 11 12 13 14 15 16 17 18 19 20 21 22 23 24 25 26 27 28 29 30 31 32 33 34 35 36 37 38 39 40 41 42 43 44 45 46 47 48 49 50

950
ASUS42 KMHX 210725
RWRMHX
WEATHER ROUNDUP FOR EASTERN NORTH CAROLINA
NATIONAL WEATHER SERVICE NEWPORT/MOREHEAD CITY NC
300 AM EDT MON MAY 21 2018

NOTE: "FAIR" INDICATES FEW OR NO CLOUDS BELOW 12,000 FEET
WITH NO SIGNIFICANT WEATHER AND/OR OBSTRUCTIONS TO VISIBILITY

NCZ015>017-031-032-045>047-102-103-210800-
NORTH COAST

CITY           SKY/WX    TMP DP  RH WIND       PRES   REMARKS
EDENTON        FAIR      75  71  88 SW8       30.10S
ELIZABETH CITY FAIR      73  73 100 SW9       30.08S
KITTY HAWK     FAIR      73  69  87 SW8       30.09R
MANTEO         FAIR      73  69  88 W10       30.10S

$$

NCZ045>047-081-094-103-104-210800-
CENTRAL COAST

CITY           SKY/WX    TMP DP  RH WIND       PRES   REMARKS
FRISCO         FAIR      73  71  93 SW10      30.12F

$$

NCZ095-097-098-100-101-210800-
SOUTHERN COAST

CITY           SKY/WX    TMP DP  RH WIND       PRES   REMARKS
BEAUFORT       MOCLDY    73  71  93 SW12      30.13F
CEDAR ISLAND   NOT AVBL
JACKSONVILLE   FAIR      70  70 100 SW5       30.12F
PINEY ISLAND   NOT AVBL
WILMINGTON     FAIR      71  68  90 SW5       30.13F


$$

NCZ011>013-027>030-043-044-078>080-089-090>093-098-210800-
COASTAL PLAIN

CITY           SKY/WX    TMP DP  RH WIND       PRES   REMARKS
AHOSKIE        FAIR      72  72 100 S5        30.08F
CLINTON        FAIR      72  72 100 SW3       30.12S
ELIZABETHTOWN  FAIR      71  70  96 SW3       30.12F
GOLDSBORO      CLEAR     73  70  88 SW3       30.10F
GREENVILLE     FAIR      72  70  94 SW7       30.11S
HAVELOCK       NOT AVBL
KENANSVILLE    MOCLDY    70  70 100 SW3       30.13S
KINSTON        NOT AVBL
NEW BERN       FAIR      69  69 100 S8        30.12F
RICHLANDS      FAIR      69  69 100 S6        30.13S
ROCKY MOUNT    FAIR      72  70  93 S5        30.09F
WASHINGTON     FAIR      71  70  95 CALM      30.11S
WHITEVILLE     FAIR      72  70  95 S3        30.13S

$$

AMZ130-135-150-152-154-156-158-170-250-252-270-ANZ085-086-088-633-658-670-210800-
MARINE OBSERVATIONS

STATION/POSITION TIME  TEMP    WIND        PRES    WAVE   SWELL
                       AIR SEA DIR/SP/G            HT/PER HT/PER
                 (UTC) (F)     (DEG/KT/KT) (MB)    (FT/S) (FT/S)
CHESAPEAKE LIGHT NOT AVBL
64 E VA BEACH    0650   71 68  230/ 12/ 14 1018.7    6/ 8   5/ 8
DUCK             0700   74 55  230/ 12/ 15 1018.4
2 E DUCK         0700      62                N/A     2/ 8
OREGON INLET     0654   75 76  210/ 14/ 18 1018.7
13E OREGON INLT  0648      63                N/A     4/ 8   2/ 8
HATTERAS CG      0700   73 77  230/ 10/ 12 1019.5
DIAMOND BUOY     0710   75 74  230/ 14/ 17 1020.1
CAPE LOOKOUT     0700          230/  8/ 12 1020.4
BEAUFORT LAB     0654   74 76  230/  3/  8 1020.5
30 SE NEW RVR IN 0708   75     220/ 12/ 14 1020.5
30 SE NEW RVR IN 0700      76                N/A     5/ 9   2/11
27 SE WRIGHTSVLE 0708   73 74  230/ 10/ 14 1020.6
5 SE WRIGHTSVLE  0708   72 71  340/  8/ 10 1020.1
225 S CAPE HAT   0710      77  170/ 12/ 14 1021.5
41 SE CHARLESTON 0700      74  150/  2/  4 1020.5

$$




USA.gov is the U.S. government's official web portal to all federal, state and local government web resources and services.